When you browse on this site, cookies collect data to enhance your experience and personalize the content and advertising you see.
Visit our Privacy Policy to learn more. By continuing to use the site, you agree to this use of cookies and data.
  • In Switzerland
  • List of Countries
  • For 7 days
  • Water Temperature
  • Weather Map
  • Weather Widgets
  • user-avatar
    Login

    Hourly Weather Soshihino

    Today, 19 August, Monday

    Time Temperature Precipitation Wind Pressure Humidity
    00:00 +14°C° 0 mm 1 mps 753 mmHg 87%
    01:00 +14°C° 0 mm 1 mps 753 mmHg 89%
    02:00 +14°C° 0 mm 2 mps 753 mmHg 92%
    03:00 +14°C° 0 mm 2 mps 753 mmHg 91%
    04:00 +14°C° 0 mm 2 mps 752 mmHg 89%
    05:00 +13°C° 0 mm 3 mps 752 mmHg 88%
    06:00 +14°C° 0 mm 3 mps 752 mmHg 83%
    07:00 +17°C° 0 mm 3 mps 752 mmHg 78%
    08:00 +18°C° 0 mm 4 mps 752 mmHg 71%
    09:00 +19°C° 0 mm 4 mps 752 mmHg 70%
    10:00 +21°C° 0 mm 4 mps 752 mmHg 68%
    11:00 +23°C° 0 mm 4 mps 752 mmHg 67%
    12:00 +25°C° 0 mm 4 mps 752 mmHg 65%
    13:00 +26°C° 0 mm 4 mps 752 mmHg 64%
    14:00 +27°C° 0 mm 4 mps 752 mmHg 62%
    15:00 +26°C° 0.6 mm 4 mps 752 mmHg 70%
    16:00 +25°C° 0.6 mm 3 mps 752 mmHg 78%
    17:00 +24°C° 0.6 mm 3 mps 752 mmHg 86%
    18:00 +23°C° 0.1 mm 2 mps 753 mmHg 89%
    19:00 +21°C° 0.1 mm 2 mps 753 mmHg 92%
    20:00 +20°C° 0.1 mm 2 mps 753 mmHg 95%
    21:00 +19°C° 0 mm 2 mps 754 mmHg 95%
    22:00 +19°C° 0 mm 2 mps 754 mmHg 96%
    23:00 +18°C° 0 mm 2 mps 755 mmHg 97%

    Tomorrow, 20 August, Tuesday

    Time Temperature Precipitation Wind Pressure Humidity
    00:00 +18°C° 0 mm 1 mps 755 mmHg 95%
    01:00 +16°C° 0 mm 1 mps 755 mmHg 93%
    02:00 +15°C° 0 mm 1 mps 756 mmHg 91%
    03:00 +15°C° 0 mm 1 mps 756 mmHg 90%
    04:00 +15°C° 0 mm 1 mps 757 mmHg 89%
    05:00 +13°C° 0 mm 0 mps 757 mmHg 88%
    06:00 +14°C° 0 mm 0 mps 757 mmHg 85%
    07:00 +15°C° 0 mm 0 mps 757 mmHg 83%
    08:00 +16°C° 0 mm 0 mps 757 mmHg 81%
    09:00 +18°C° 0 mm 0 mps 758 mmHg 73%
    10:00 +19°C° 0 mm 0 mps 758 mmHg 64%
    11:00 +21°C° 0 mm 0 mps 758 mmHg 56%
    12:00 +24°C° 0 mm 1 mps 758 mmHg 54%
    13:00 +25°C° 0 mm 1 mps 758 mmHg 52%
    14:00 +25°C° 0 mm 1 mps 758 mmHg 51%
    15:00 +25°C° 0 mm 1 mps 758 mmHg 53%
    16:00 +25°C° 0 mm 1 mps 758 mmHg 56%
    17:00 +25°C° 0 mm 1 mps 758 mmHg 58%
    18:00 +23°C° 0 mm 1 mps 759 mmHg 65%
    19:00 +21°C° 0 mm 1 mps 759 mmHg 72%
    20:00 +19°C° 0 mm 1 mps 759 mmHg 78%
    21:00 +18°C° 0 mm 1 mps 759 mmHg 81%
    22:00 +15°C° 0 mm 0 mps 760 mmHg 84%
    23:00 +14°C° 0 mm 0 mps 760 mmHg 87%

    Day after tomorrow, 21 August, Wednesday

    Time Temperature Precipitation Wind Pressure Humidity
    00:00 +14°C° 0 mm 0 mps 760 mmHg 86%
    01:00 +14°C° 0 mm 0 mps 760 mmHg 86%
    02:00 +14°C° 0 mm 0 mps 760 mmHg 86%
    03:00 +14°C° 0 mm 0 mps 760 mmHg 86%
    04:00 +13°C° 0 mm 0 mps 760 mmHg 87%
    05:00 +13°C° 0 mm 0 mps 760 mmHg 87%
    06:00 +16°C° 0 mm 1 mps 760 mmHg 83%
    07:00 +18°C° 0 mm 1 mps 760 mmHg 78%
    08:00 +20°C° 0 mm 1 mps 760 mmHg 74%
    09:00 +21°C° 0 mm 1 mps 760 mmHg 69%
    10:00 +23°C° 0 mm 1 mps 760 mmHg 64%
    11:00 +24°C° 0 mm 1 mps 760 mmHg 59%
    12:00 +23°C° 0 mm 1 mps 760 mmHg 63%
    13:00 +22°C° 0 mm 1 mps 760 mmHg 68%
    14:00 +22°C° 0 mm 1 mps 760 mmHg 72%
    15:00 +21°C° 0 mm 1 mps 759 mmHg 75%
    16:00 +19°C° 0 mm 2 mps 759 mmHg 79%
    17:00 +19°C° 0 mm 2 mps 759 mmHg 82%
    18:00 +18°C° 0 mm 2 mps 759 mmHg 84%
    19:00 +17°C° 0 mm 2 mps 759 mmHg 85%
    20:00 +17°C° 0 mm 2 mps 759 mmHg 87%
    21:00 +16°C° 0.1 mm 2 mps 759 mmHg 90%
    22:00 +16°C° 0.1 mm 2 mps 759 mmHg 92%
    23:00 +15°C° 0.1 mm 2 mps 759 mmHg 94%

    22 August, Thursday

    Time Temperature Precipitation Wind Pressure Humidity
    00:00 +15°C° 0.3 mm 2 mps 759 mmHg 95%
    01:00 +15°C° 0.3 mm 2 mps 760 mmHg 95%
    02:00 +15°C° 0.3 mm 2 mps 760 mmHg 96%
    03:00 +14°C° 0 mm 1 mps 760 mmHg 96%
    04:00 +14°C° 0 mm 1 mps 760 mmHg 95%
    05:00 +13°C° 0 mm 1 mps 760 mmHg 95%
    06:00 +14°C° 0 mm 1 mps 760 mmHg 93%
    07:00 +15°C° 0 mm 1 mps 760 mmHg 90%
    08:00 +16°C° 0 mm 2 mps 761 mmHg 88%
    09:00 +17°C° 0 mm 2 mps 761 mmHg 79%
    10:00 +19°C° 0 mm 2 mps 761 mmHg 69%
    11:00 +21°C° 0 mm 3 mps 761 mmHg 60%
    12:00 +21°C° 0 mm 3 mps 761 mmHg 55%
    13:00 +22°C° 0 mm 3 mps 761 mmHg 50%
    14:00 +22°C° 0 mm 3 mps 761 mmHg 46%
    15:00 +23°C° 0 mm 2 mps 761 mmHg 49%
    16:00 +23°C° 0 mm 2 mps 761 mmHg 51%
    17:00 +22°C° 0 mm 1 mps 760 mmHg 54%
    18:00 +20°C° 0 mm 1 mps 761 mmHg 61%
    19:00 +18°C° 0 mm 1 mps 761 mmHg 67%
    20:00 +14°C° 0 mm 0 mps 761 mmHg 74%
    21:00 +14°C° 0 mm 1 mps 761 mmHg 76%
    22:00 +14°C° 0 mm 1 mps 762 mmHg 79%
    23:00 +13°C° 0 mm 1 mps 762 mmHg 81%

    23 August, Friday

    Time Temperature Precipitation Wind Pressure Humidity
    00:00 +13°C° 0 mm 1 mps 762 mmHg 84%
    01:00 +12°C° 0 mm 1 mps 762 mmHg 87%
    02:00 +12°C° 0 mm 1 mps 762 mmHg 90%
    03:00 +12°C° 0 mm 1 mps 762 mmHg 90%
    04:00 +11°C° 0 mm 1 mps 762 mmHg 90%
    05:00 +11°C° 0 mm 1 mps 762 mmHg 90%
    06:00 +13°C° 0 mm 1 mps 762 mmHg 83%
    07:00 +14°C° 0 mm 1 mps 762 mmHg 76%
    08:00 +16°C° 0 mm 1 mps 763 mmHg 70%
    09:00 +17°C° 0 mm 2 mps 763 mmHg 66%
    10:00 +19°C° 0 mm 2 mps 763 mmHg 62%
    11:00 +20°C° 0 mm 2 mps 763 mmHg 58%
    12:00 +21°C° 0 mm 2 mps 762 mmHg 55%
    13:00 +21°C° 0 mm 2 mps 762 mmHg 53%
    14:00 +22°C° 0 mm 3 mps 762 mmHg 51%
    15:00 +23°C° 0 mm 2 mps 762 mmHg 53%
    16:00 +23°C° 0 mm 2 mps 762 mmHg 56%
    17:00 +23°C° 0 mm 1 mps 762 mmHg 58%
    18:00 +21°C° 0 mm 1 mps 762 mmHg 65%
    19:00 +19°C° 0 mm 1 mps 762 mmHg 73%
    20:00 +16°C° 0 mm 1 mps 762 mmHg 80%
    21:00 +15°C° 0 mm 1 mps 762 mmHg 83%
    22:00 +14°C° 0 mm 1 mps 762 mmHg 86%
    23:00 +14°C° 0 mm 1 mps 762 mmHg 89%

    24 August, Saturday

    Time Temperature Precipitation Wind Pressure Humidity
    00:00 +13°C° 0 mm 1 mps 762 mmHg 91%
    01:00 +13°C° 0 mm 1 mps 763 mmHg 92%
    02:00 +13°C° 0 mm 1 mps 763 mmHg 94%
    03:00 +12°C° 0 mm 1 mps 763 mmHg 94%
    04:00 +12°C° 0 mm 1 mps 763 mmHg 95%
    05:00 +12°C° 0 mm 2 mps 762 mmHg 95%
    06:00 +14°C° 0 mm 2 mps 763 mmHg 89%
    07:00 +15°C° 0 mm 2 mps 763 mmHg 83%
    08:00 +17°C° 0 mm 2 mps 763 mmHg 77%
    09:00 +18°C° 0 mm 2 mps 763 mmHg 73%
    10:00 +19°C° 0 mm 2 mps 763 mmHg 69%
    11:00 +20°C° 0 mm 2 mps 763 mmHg 65%
    12:00 +21°C° 0 mm 3 mps 763 mmHg 60%
    13:00 +24°C° 0 mm 3 mps 762 mmHg 56%
    14:00 +25°C° 0 mm 3 mps 762 mmHg 51%
    15:00 +24°C° 0 mm 2 mps 762 mmHg 54%
    16:00 +24°C° 0 mm 2 mps 762 mmHg 57%
    17:00 +24°C° 0 mm 2 mps 762 mmHg 61%
    18:00 +21°C° 0 mm 2 mps 762 mmHg 66%
    19:00 +19°C° 0 mm 2 mps 762 mmHg 71%
    20:00 +17°C° 0 mm 2 mps 762 mmHg 76%
    21:00 +17°C° 0 mm 2 mps 762 mmHg 78%
    22:00 +16°C° 0 mm 2 mps 762 mmHg 80%
    23:00 +16°C° 0 mm 2 mps 762 mmHg 82%
    Show more